CHPR20 KFSM-

Flight info

Callsign CHPR20
Flight time N/A
Altitude VFR
Route
Aircraft B407/L-DOV/C

Departure

Time 2026-04-24 09:10
Airport Fort Smith Regional Airport (KFSM)

Arrival

Time N/A
Airport -
Time Latitude Longitude Altitude Speed Heading
2026-04-24 09:04 35.34043 -94.35694 458 ft 0 kts 84°
2026-04-24 09:09 35.34036 -94.35659 486 ft 15 kts 133°
2026-04-24 09:10 35.33807 -94.35655 714 ft 46 kts 183°
2026-04-24 09:10 35.33370 -94.35735 895 ft 79 kts 188°
2026-04-24 09:10 35.32835 -94.35850 1102 ft 72 kts 188°
2026-04-24 09:10 35.32377 -94.36011 1259 ft 72 kts 192°
2026-04-24 09:11 35.31841 -94.36137 1251 ft 86 kts 195°
2026-04-24 09:11 35.31229 -94.36251 1333 ft 89 kts 181°
2026-04-24 09:11 35.30677 -94.36396 1426 ft 86 kts 188°
2026-04-24 09:11 35.30092 -94.36519 1382 ft 96 kts 186°
2026-04-24 09:12 35.29473 -94.36696 1532 ft 85 kts 199°
2026-04-24 09:12 35.28900 -94.36929 1587 ft 93 kts 199°
2026-04-24 09:12 35.28277 -94.37163 1646 ft 94 kts 195°
2026-04-24 09:12 35.27641 -94.37370 1733 ft 93 kts 193°
2026-04-24 09:13 35.27174 -94.36947 2028 ft 104 kts 115°
2026-04-24 09:13 35.27449 -94.36057 2139 ft 123 kts 66°
2026-04-24 09:13 35.27834 -94.35079 1998 ft 139 kts 65°
2026-04-24 09:13 35.28454 -94.34068 1665 ft 152 kts 46°
2026-04-24 09:14 35.29238 -94.33225 1486 ft 146 kts 36°
2026-04-24 09:14 35.30049 -94.32501 1328 ft 140 kts 34°
2026-04-24 09:14 35.30821 -94.31821 1161 ft 133 kts 39°
2026-04-24 09:14 35.31109 -94.30827 1014 ft 122 kts 92°
2026-04-24 09:15 35.31104 -94.29816 978 ft 120 kts 78°
2026-04-24 09:15 35.31106 -94.28965 1169 ft 91 kts 130°
2026-04-24 09:15 35.30556 -94.28901 1268 ft 79 kts 206°
2026-04-24 09:15 35.30496 -94.29429 1215 ft 70 kts 332°
2026-04-24 09:16 35.30940 -94.29534 838 ft 55 kts 345°
2026-04-24 09:16 35.31102 -94.29557 545 ft 2 kts 326°
2026-04-24 09:16 35.31142 -94.29579 504 ft 9 kts 317°
2026-04-24 09:16 35.31165 -94.29597 437 ft 1 kts 316°
2026-04-24 09:17 35.31163 -94.29591 424 ft 0 kts 315°
2026-04-24 09:17 35.31172 -94.29590 433 ft 15 kts 359°
2026-04-24 09:17 35.31518 -94.29469 821 ft 17 kts 154°
2026-04-24 09:18 35.31385 -94.29481 988 ft 31 kts 190°
2026-04-24 09:18 35.31212 -94.29520 625 ft 14 kts 219°
2026-04-24 09:18 35.31152 -94.29532 550 ft 16 kts 170°
2026-04-24 09:18 35.30810 -94.29498 728 ft 76 kts 173°
2026-04-24 09:19 35.30682 -94.29507 800 ft 53 kts 343°
2026-04-24 09:19 35.31414 -94.29427 520 ft 122 kts
2026-04-24 09:19 35.32288 -94.29172 703 ft 132 kts 19°
2026-04-24 09:19 35.33084 -94.28724 890 ft 121 kts 30°
2026-04-24 09:20 35.33843 -94.28228 1045 ft 130 kts 40°
2026-04-24 09:20 35.34765 -94.27299 1427 ft 126 kts 43°
2026-04-24 09:20 35.35177 -94.26880 1782 ft 93 kts 83°
2026-04-24 09:20 35.35033 -94.26757 2187 ft 35 kts 191°
2026-04-24 09:21 35.34769 -94.27115 2295 ft 84 kts 224°
2026-04-24 09:21 35.34415 -94.27835 2160 ft 109 kts 227°
2026-04-24 09:21 35.33943 -94.28380 2489 ft 76 kts 208°
2026-04-24 09:21 35.33598 -94.28813 2873 ft 60 kts 224°
2026-04-24 09:22 35.33401 -94.29324 3203 ft 77 kts 233°
2026-04-24 09:22 35.33381 -94.29694 3010 ft 11 kts 195°
2026-04-24 09:22 35.33076 -94.29629 2628 ft 76 kts 169°
2026-04-24 09:22 35.32935 -94.29523 3294 ft 7 kts 172°
2026-04-24 09:23 35.32944 -94.29511 3657 ft 2 kts 172°
2026-04-24 09:23 35.32963 -94.29492 3863 ft 12 kts 346°
2026-04-24 09:23 35.33016 -94.29403 3429 ft 10 kts 17°
2026-04-24 09:23 35.33153 -94.29294 2943 ft 75 kts
2026-04-24 09:24 35.33861 -94.28850 2005 ft 122 kts
2026-04-24 09:24 35.34649 -94.28973 1503 ft 111 kts 325°
2026-04-24 09:24 35.35220 -94.29603 1118 ft 100 kts 288°
2026-04-24 09:24 35.35174 -94.30317 848 ft 85 kts 238°
2026-04-24 09:25 35.34896 -94.31017 1174 ft 94 kts 244°
2026-04-24 09:25 35.34697 -94.31800 1683 ft 84 kts 246°
2026-04-24 09:25 35.34609 -94.32483 1672 ft 98 kts 236°
2026-04-24 09:25 35.34275 -94.33290 977 ft 115 kts 235°
2026-04-24 09:26 35.33958 -94.34365 679 ft 144 kts 244°
2026-04-24 09:26 35.33773 -94.35406 772 ft 120 kts 244°
2026-04-24 09:26 35.33594 -94.36490 470 ft 130 kts 252°
2026-04-24 09:26 35.33834 -94.37209 707 ft 98 kts 28°
2026-04-24 09:27 35.34260 -94.36782 732 ft 70 kts 60°
2026-04-24 09:27 35.34520 -94.36254 1099 ft 75 kts 88°
2026-04-24 09:27 35.34579 -94.35565 1328 ft 86 kts 104°
2026-04-24 09:27 35.34439 -94.34743 1509 ft 106 kts 123°
2026-04-24 09:28 35.34257 -94.34299 1933 ft 36 kts 261°
2026-04-24 09:28 35.34293 -94.34871 2121 ft 89 kts 266°
2026-04-24 09:28 35.34585 -94.35340 2589 ft 96 kts 357°
2026-04-24 09:28 35.34709 -94.34955 2473 ft 6 kts 177°
2026-04-24 09:29 35.34713 -94.34949 2892 ft 1 kts 182°
2026-04-24 09:29 35.34723 -94.34941 3592 ft 5 kts 186°
2026-04-24 09:29 35.34736 -94.34921 4451 ft 3 kts 188°
2026-04-24 09:29 35.34747 -94.34906 5237 ft 7 kts 196°
2026-04-24 09:30 35.35061 -94.34534 4923 ft 69 kts 197°
2026-04-24 09:30 35.35325 -94.34274 3049 ft 24 kts 244°
2026-04-24 09:30 35.35298 -94.34206 2482 ft 11 kts 148°
2026-04-24 09:30 35.35298 -94.34151 2474 ft 14 kts 230°
2026-04-24 09:31 35.35222 -94.34464 2545 ft 59 kts 232°
2026-04-24 09:31 35.34952 -94.35065 1443 ft 105 kts 220°
2026-04-24 09:31 35.34433 -94.35690 1155 ft 98 kts 211°
2026-04-24 09:31 35.34094 -94.36257 1083 ft 69 kts 269°
2026-04-24 09:32 35.34157 -94.36657 853 ft 21 kts 285°
2026-04-24 09:32 35.34201 -94.36771 618 ft 20 kts 282°
2026-04-24 09:32 35.34210 -94.36890 545 ft 2 kts 127°
2026-04-24 09:32 35.34221 -94.36900 454 ft 0 kts 113°